Zurück zum Katalog

STARLINK-31161

AktivKommunikationVLEO
NORAD 58795·PAYLOAD·🇺🇸 United States

Gestartet Jan 15, 2024 von Cape Canaveral Space Force Station

Loading…

Nächste Überflüge (nächste 24 Stunden)

TLE

AktuellSource: CelesTrak SupGP

Epoche: Sep 15, 2026, 02:35 UTC

1 58795C 24012J   26258.10812500 -.00008422  00000+0 -30508-3 0  2587
2 58795  43.0017 175.3234 0001297 272.2507 220.6780 15.27579092    13

Verfolge STARLINK-31161 in Echtzeit mit AllMySat

Download on the App Store